Regional Weather Roundup
Issued by NWS

Home | Current Version | Previous Version | Graphics & Text | Print | Product List | Glossary On
Versions: 1 2 3 4 5 6 7 8 9 10 11 12 13 14 15 16 17 18 19 20 21 22 23 24 25 26 27 28 29 30 31 32 33 34 35 36 37 38 39 40 41 42 43 44 45 46 47 48 49 50
000
ASUS44 KMEG 232210
RWRTN
TENNESSEE HOURLY STATE WEATHER ROUNDUP
NATIONAL WEATHER SERVICE MEMPHIS TN
500 PM CDT TUE SEP 23 2014

TNZ002-004-019-021-049-052-054-088>092-232300-
WEST TENNESSEE

CITY           SKY/WX    TMP DP  RH WIND       PRES   REMARKS
MEMPHIS INTL   MOSUNNY   80  44  27 NE12      30.15F
NWS MEMPHIS      N/A     77 N/A N/A MISG        N/A
JACKSON        SUNNY     78  49  35 NE8       30.17F
DYERSBURG      SUNNY     77  45  31 NE8       30.19S
UNION CITY     SUNNY     75  46  35 VRB6      30.18S
PARIS          SUNNY     75  45  33 NE7       30.20S
HUNTINGDON     SUNNY     75  40  28 E8        30.18F
LEXINGTON      SUNNY     75  45  33 NE5       30.17F
SAVANNAH       SUNNY     81  48  32 N9        30.16S
$$

TNZ008-025-027-028-033-062-065-066-232300-
NORTH MIDDLE TENNESSEE

CITY           SKY/WX    TMP DP  RH WIND       PRES   REMARKS
NASHVILLE      SUNNY     77  44  30 VRB7      30.20F
DICKSON        SUNNY     73  45  35 NE8       30.20F
PORTLAND       SUNNY     73  48  40 NE8       30.21F
CLARKSVILLE    SUNNY     76  46  34 N10       30.20F
LEBANON        SUNNY     75  45  34 NE6       30.20S
SMYRNA         SUNNY     78  45  31 NE6       30.21S
COOKEVILLE     SUNNY     73  52  46 N3        30.22S
GALLATIN       SUNNY     76  49  38 NE6       30.22F
CROSSVILLE     SUNNY     72  44  36 E3        30.24S
$$

TNZ061-075-076-078-094-096-097-232300-
SOUTH MIDDLE TENNESSEE

CITY           SKY/WX    TMP DP  RH WIND       PRES   REMARKS
LEWISBURG      SUNNY     77  43  29 NE7       30.18F
FAYETTEVILLE   SUNNY     75  48  38 N3        30.18S
TULLAHOMA      SUNNY     75  48  38 CALM      30.20S
WINCHESTER     MOSUNNY   75  55  50 NE3       30.18F
MCMINNVILLE    SUNNY     73  55  53 NE7       30.21S
COLUMBIA       SUNNY     79  46  31 NE9       30.18S
SHELBYVILLE    SUNNY     79  48  34 N6        30.20S
$$

TNZ017-018-042-046-047-232300-
NORTHEAST TENNESSEE

CITY           SKY/WX    TMP DP  RH WIND       PRES   REMARKS
TRI CITIES     MOSUNNY   75  48  38 E7        30.24S
ELIZABETHTON   CLEAR     64  52  63 E6        30.26S
$$

TNZ012-013-036-069-073-074-232300-
CENTRAL EAST TENNESSEE

CITY           SKY/WX    TMP DP  RH WIND       PRES   REMARKS
KNOXVILLE      MOSUNNY   76  51  41 N5        30.20S
OAK RIDGE      SUNNY     76  50  40 CALM      30.22F
GATLINBURG     CLEAR     75  45  33 CALM      30.20S
MORRISTOWN     CLEAR     73  52  46 N7        30.23S
$$

TNZ083-085-099-232300-
SOUTHEAST TENNESSEE

CITY           SKY/WX    TMP DP  RH WIND       PRES   REMARKS
CHATTANOOGA    MOSUNNY   78  52  40 N9        30.18F
$$

SKY/WX REPORTED AS FAIR MEANS FEW OR NO CLOUDS BELOW
12 THOUSAND FEET.



USA.gov is the U.S. government's official web portal to all federal, state and local government web resources and services.